EN

Hourly Weather La Colmena

Today, 3 August, Tuesday

Time Temperature Precipitation Wind Pressure Humidity
00:00 +9°C° 0 mm 1 mps 746 mmHg 70%
01:00 +9°C° 0 mm 1 mps 745 mmHg 72%
02:00 +8°C° 0 mm 1 mps 745 mmHg 73%
03:00 +8°C° 0 mm 1 mps 745 mmHg 74%
04:00 +8°C° 0 mm 1 mps 745 mmHg 75%
05:00 +7°C° 0 mm 1 mps 745 mmHg 75%
06:00 +9°C° 0 mm 1 mps 745 mmHg 69%
07:00 +10°C° 0 mm 1 mps 746 mmHg 64%
08:00 +12°C° 0 mm 1 mps 746 mmHg 58%
09:00 +14°C° 0 mm 1 mps 746 mmHg 50%
10:00 +18°C° 0 mm 1 mps 747 mmHg 42%
11:00 +20°C° 0 mm 2 mps 747 mmHg 34%
12:00 +21°C° 0 mm 2 mps 746 mmHg 30%
13:00 +23°C° 0 mm 2 mps 745 mmHg 27%
14:00 +24°C° 0 mm 1 mps 745 mmHg 23%
15:00 +22°C° 0 mm 1 mps 744 mmHg 29%
16:00 +20°C° 0 mm 1 mps 744 mmHg 35%
17:00 +18°C° 0 mm 1 mps 744 mmHg 40%
18:00 +16°C° 0 mm 2 mps 744 mmHg 44%
19:00 +14°C° 0 mm 2 mps 745 mmHg 48%
20:00 +13°C° 0 mm 2 mps 745 mmHg 52%
21:00 +12°C° 0 mm 1 mps 745 mmHg 54%
22:00 +12°C° 0 mm 1 mps 745 mmHg 56%
23:00 +11°C° 0 mm 1 mps 745 mmHg 59%

Tomorrow, 4 August, Wednesday

Time Temperature Precipitation Wind Pressure Humidity
00:00 +11°C° 0 mm 1 mps 745 mmHg 61%
01:00 +10°C° 0 mm 1 mps 745 mmHg 63%
02:00 +10°C° 0 mm 1 mps 745 mmHg 66%
03:00 +10°C° 0 mm 1 mps 745 mmHg 66%
04:00 +9°C° 0 mm 1 mps 745 mmHg 67%
05:00 +9°C° 0 mm 1 mps 745 mmHg 67%
06:00 +11°C° 0 mm 1 mps 745 mmHg 63%
07:00 +12°C° 0 mm 1 mps 745 mmHg 58%
08:00 +13°C° 0 mm 0 mps 746 mmHg 53%
09:00 +16°C° 0 mm 1 mps 746 mmHg 47%
10:00 +20°C° 0 mm 1 mps 746 mmHg 41%
11:00 +23°C° 0 mm 1 mps 746 mmHg 34%
12:00 +24°C° 0 mm 1 mps 745 mmHg 33%
13:00 +25°C° 0 mm 1 mps 745 mmHg 31%
14:00 +26°C° 0 mm 1 mps 744 mmHg 30%
15:00 +24°C° 0 mm 1 mps 744 mmHg 35%
16:00 +22°C° 0 mm 1 mps 744 mmHg 41%
17:00 +19°C° 0 mm 0 mps 744 mmHg 47%
18:00 +18°C° 0 mm 0 mps 744 mmHg 49%
19:00 +19°C° 0 mm 1 mps 744 mmHg 51%
20:00 +18°C° 0 mm 1 mps 745 mmHg 52%
21:00 +16°C° 0 mm 1 mps 744 mmHg 54%
22:00 +16°C° 0 mm 1 mps 744 mmHg 55%
23:00 +15°C° 0 mm 1 mps 744 mmHg 57%

Day after tomorrow, 5 August, Thursday

Time Temperature Precipitation Wind Pressure Humidity
00:00 +15°C° 0 mm 1 mps 744 mmHg 57%
01:00 +15°C° 0 mm 1 mps 744 mmHg 58%
02:00 +14°C° 0 mm 0 mps 744 mmHg 59%
03:00 +15°C° 0 mm 1 mps 743 mmHg 59%
04:00 +15°C° 0 mm 1 mps 743 mmHg 60%
05:00 +15°C° 0 mm 1 mps 743 mmHg 61%
06:00 +16°C° 0 mm 1 mps 743 mmHg 60%
07:00 +16°C° 0 mm 1 mps 744 mmHg 59%
08:00 +18°C° 0 mm 1 mps 744 mmHg 58%
09:00 +19°C° 0 mm 2 mps 744 mmHg 52%
10:00 +21°C° 0 mm 2 mps 744 mmHg 46%
11:00 +22°C° 0 mm 3 mps 744 mmHg 39%
12:00 +24°C° 0 mm 2 mps 744 mmHg 38%
13:00 +25°C° 0 mm 2 mps 743 mmHg 37%
14:00 +25°C° 0 mm 2 mps 743 mmHg 36%
15:00 +24°C° 0 mm 2 mps 743 mmHg 41%
16:00 +23°C° 0 mm 2 mps 743 mmHg 45%
17:00 +21°C° 0 mm 2 mps 743 mmHg 50%
18:00 +21°C° 0 mm 1 mps 743 mmHg 52%
19:00 +20°C° 0 mm 1 mps 743 mmHg 55%
20:00 +19°C° 0 mm 1 mps 743 mmHg 57%
21:00 +18°C° 0 mm 1 mps 743 mmHg 57%
22:00 +18°C° 0 mm 1 mps 743 mmHg 57%
23:00 +17°C° 0 mm 2 mps 743 mmHg 56%

6 August, Friday

Time Temperature Precipitation Wind Pressure Humidity
00:00 +18°C° 0 mm 1 mps 743 mmHg 58%
01:00 +16°C° 0 mm 1 mps 742 mmHg 60%
02:00 +16°C° 0 mm 1 mps 742 mmHg 62%
03:00 +15°C° 0 mm 1 mps 742 mmHg 65%
04:00 +15°C° 0 mm 1 mps 742 mmHg 68%
05:00 +14°C° 0 mm 1 mps 742 mmHg 71%
06:00 +16°C° 0 mm 1 mps 742 mmHg 68%
07:00 +17°C° 0 mm 2 mps 743 mmHg 65%
08:00 +18°C° 0 mm 2 mps 743 mmHg 62%
09:00 +21°C° 0 mm 2 mps 743 mmHg 55%
10:00 +25°C° 0 mm 3 mps 743 mmHg 47%
11:00 +28°C° 0 mm 4 mps 743 mmHg 39%
12:00 +28°C° 0 mm 3 mps 742 mmHg 37%
13:00 +29°C° 0 mm 3 mps 742 mmHg 36%
14:00 +29°C° 0 mm 3 mps 741 mmHg 35%
15:00 +28°C° 0 mm 2 mps 741 mmHg 40%
16:00 +26°C° 0 mm 2 mps 740 mmHg 44%
17:00 +25°C° 0 mm 1 mps 740 mmHg 49%
18:00 +24°C° 0 mm 2 mps 740 mmHg 49%
19:00 +24°C° 0 mm 2 mps 740 mmHg 48%
20:00 +24°C° 0 mm 3 mps 740 mmHg 47%
21:00 +22°C° 0 mm 3 mps 740 mmHg 50%
22:00 +21°C° 0 mm 2 mps 740 mmHg 53%
23:00 +20°C° 0 mm 2 mps 740 mmHg 56%

7 August, Saturday

Time Temperature Precipitation Wind Pressure Humidity
00:00 +20°C° 0.1 mm 2 mps 739 mmHg 59%
01:00 +19°C° 0.1 mm 2 mps 739 mmHg 63%
02:00 +19°C° 0.1 mm 2 mps 739 mmHg 66%
03:00 +18°C° 0 mm 2 mps 739 mmHg 67%
04:00 +18°C° 0 mm 2 mps 739 mmHg 67%
05:00 +18°C° 0 mm 2 mps 739 mmHg 68%
06:00 +20°C° 0 mm 3 mps 739 mmHg 62%
07:00 +21°C° 0 mm 4 mps 740 mmHg 56%
08:00 +23°C° 0 mm 5 mps 740 mmHg 49%
09:00 +26°C° 0 mm 5 mps 740 mmHg 44%
10:00 +28°C° 0 mm 5 mps 740 mmHg 39%
11:00 +30°C° 0 mm 6 mps 741 mmHg 33%
12:00 +32°C° 0 mm 5 mps 740 mmHg 31%
13:00 +33°C° 0 mm 5 mps 739 mmHg 29%
14:00 +34°C° 0 mm 5 mps 739 mmHg 27%
15:00 +32°C° 0 mm 4 mps 738 mmHg 30%
16:00 +30°C° 0 mm 3 mps 738 mmHg 34%
17:00 +29°C° 0 mm 3 mps 738 mmHg 37%
18:00 +28°C° 0 mm 3 mps 738 mmHg 40%
19:00 +26°C° 0 mm 3 mps 739 mmHg 42%
20:00 +25°C° 0 mm 3 mps 739 mmHg 45%
21:00 +25°C° 0 mm 3 mps 739 mmHg 47%
22:00 +24°C° 0 mm 3 mps 739 mmHg 48%
23:00 +22°C° 0 mm 3 mps 739 mmHg 49%

8 August, Sunday

Time Temperature Precipitation Wind Pressure Humidity
00:00 +22°C° 0 mm 3 mps 739 mmHg 50%
01:00 +22°C° 0 mm 3 mps 739 mmHg 50%
02:00 +22°C° 0 mm 3 mps 739 mmHg 50%
03:00 +22°C° 0 mm 3 mps 739 mmHg 49%
04:00 +22°C° 0 mm 3 mps 739 mmHg 49%
05:00 +21°C° 0 mm 3 mps 739 mmHg 49%
06:00 +22°C° 0 mm 4 mps 739 mmHg 47%
07:00 +23°C° 0 mm 4 mps 739 mmHg 45%
08:00 +25°C° 0 mm 4 mps 740 mmHg 43%
09:00 +27°C° 0 mm 4 mps 740 mmHg 38%
10:00 +30°C° 0 mm 4 mps 740 mmHg 32%
11:00 +33°C° 0 mm 5 mps 740 mmHg 26%
12:00 +34°C° 0 mm 4 mps 739 mmHg 24%
13:00 +35°C° 0 mm 4 mps 738 mmHg 22%
14:00 +36°C° 0 mm 4 mps 738 mmHg 21%
15:00 +35°C° 0 mm 3 mps 737 mmHg 24%
16:00 +33°C° 0 mm 3 mps 737 mmHg 27%
17:00 +31°C° 0 mm 2 mps 737 mmHg 30%
18:00 +30°C° 0 mm 3 mps 737 mmHg 31%
19:00 +29°C° 0 mm 3 mps 737 mmHg 32%
20:00 +28°C° 0 mm 3 mps 738 mmHg 34%
21:00 +27°C° 0 mm 3 mps 738 mmHg 35%
22:00 +26°C° 0 mm 3 mps 738 mmHg 36%
23:00 +26°C° 0 mm 3 mps 738 mmHg 37%
Show more